Terminal Aerodrome Forecast
Issued by NWS Kansas City/Pleasant Hill, MO

Home | Current Version | Previous Version | Text Only | Print | Product List | Glossary On
Versions: 1 2 3 4 5 6 7 8 9 10 11 12 13 14
000
FTUS43 KEAX 152300
TAFMCI
TAF
KMCI 152320Z 1600/1624 18011KT P6SM SCT200
     FM160400 18016G25KT P6SM BKN200
     FM161400 19023G34KT P6SM SCT200=

USA.gov is the U.S. government's official web portal to all federal, state and local government web resources and services.